Back to catalog

STARLINK-34506

AliveCommunicationsVLEO
NORAD 64432·PAYLOAD·🇺🇸 United States

Launched Jun 17, 2025 from Vandenberg Space Force Base

Loading…

Next Passes (next 24 hours)

TLE

FreshSource: CelesTrak SupGP

Epoch: Sep 14, 2026, 22:38 UTC

1 64432C 25129W   26257.94354167  .00039697  00000+0  13806-2 0  2579
2 64432  69.9999 315.5142 0003415 269.1612 316.8448 15.29566506    13

Track STARLINK-34506 in real time with AllMySat

Download on the App Store